Date String (YYYY-MM-DD hh:mm:ss) UTC,Instrument flags,Ambient pressure (hPa),Sample flow (lpm),Bypass flow (lpm),Sample temperature (°C),Ambient temperature (°C),ASC tube jacket temperature (°C),LED temperature (°C),Box temperature (°C),Sample RH (%),Span deviation,Mass concentration (μg/m³),Mass concentration (μg/m³),Mass concentration (μg/m³)
DateTimeUTC,F1_M11,P_M11,Q1_M11,Q2_M11,T1_M11,T2_M11,T3_M11,T4_M11,T5_M11,U1_M11,ZSPAN_M11,X0_M11,X2_M11,X1_M11
2022-05-01 12:00:00,,0824.9,4.99,0.00,25.3,24.0,00.0,34.4,27.0,12.6,0000.0,0011.01,0004.47,0003.53
2022-05-01 12:01:00,,0824.9,5.02,0.00,25.3,24.0,00.0,34.4,26.9,12.6,0000.0,0011.24,0004.51,0003.55
2022-05-01 12:02:00,,0824.9,4.99,0.00,25.3,24.0,00.0,34.4,26.9,12.6,0000.0,0011.15,0004.54,0003.56
2022-05-01 12:03:00,,0824.9,5.01,0.00,25.3,24.0,00.0,34.4,26.9,12.6,0000.0,0011.45,0004.52,0003.58
2022-05-01 12:04:00,,0824.9,5.00,0.00,25.3,24.0,00.0,34.4,26.9,12.6,0000.0,0011.40,0004.52,0003.59
2022-05-01 12:05:00,,0824.8,4.99,0.00,25.2,24.0,00.0,34.4,26.9,12.6,0000.0,0011.17,0004.50,0003.59
2022-05-01 12:06:00,,0824.8,5.00,0.00,25.2,24.0,00.0,34.3,26.9,12.6,0000.0,0011.06,0004.51,0003.60
2022-05-01 12:07:00,,0824.8,5.00,0.00,25.2,24.0,00.0,34.3,26.9,12.6,0000.0,0010.83,0004.53,0003.61
2022-05-01 12:08:00,,0824.7,5.01,0.00,25.2,23.9,00.0,34.3,26.9,12.6,0000.0,0010.51,0004.57,0003.61
2022-05-01 12:09:00,,0824.7,5.00,0.00,25.2,23.9,00.0,34.3,26.9,12.5,0000.0,0010.67,0004.58,0003.62
2022-05-01 12:10:00,,0824.7,4.99,0.00,25.2,23.9,00.0,34.3,26.9,12.5,0000.0,0011.35,0004.57,0003.61
2022-05-01 12:11:00,,0824.7,5.00,0.00,25.2,23.9,00.0,34.3,26.9,12.6,0000.0,0011.87,0004.54,0003.61
2022-05-01 12:12:00,,0824.7,5.02,0.00,25.2,23.9,00.0,34.3,26.8,12.8,0000.0,0010.94,0004.59,0003.61
2022-05-01 12:13:00,,0824.7,4.98,0.00,25.1,23.9,00.0,34.3,26.8,12.8,0000.0,0010.96,0004.61,0003.61
2022-05-01 12:14:00,,0824.7,5.01,0.00,25.1,23.8,00.0,34.2,26.8,12.7,0000.0,0010.75,0004.62,0003.62
2022-05-01 12:15:00,,0824.7,5.00,0.00,25.1,23.8,00.0,34.2,26.8,12.6,0000.0,0010.65,0004.59,0003.61
2022-05-01 12:16:00,,0824.7,5.00,0.00,25.1,23.8,00.0,34.2,26.7,12.7,0000.0,0010.66,0004.60,0003.63
2022-05-01 12:17:00,,0824.7,5.01,0.00,25.1,23.8,00.0,34.2,26.7,12.8,0000.0,0010.72,0004.57,0003.63
2022-05-01 12:18:00,,0824.7,4.99,0.00,25.1,23.8,00.0,34.2,26.7,12.9,0000.0,0010.86,0004.54,0003.63
2022-05-01 12:19:00,,0824.8,5.00,0.00,25.1,23.7,00.0,34.2,26.7,12.7,0000.0,0010.83,0004.50,0003.63
2022-05-01 12:20:00,,0824.8,5.02,0.00,25.1,23.7,00.0,34.2,26.7,12.5,0000.0,0010.80,0004.49,0003.62
2022-05-01 12:21:00,,0824.9,4.99,0.00,25.0,23.8,00.0,34.1,26.7,12.5,0000.0,0010.02,0004.46,0003.62
2022-05-01 12:22:00,,0824.9,5.00,0.00,25.1,23.8,00.0,34.1,26.8,12.5,0000.0,0009.54,0004.48,0003.62
2022-05-01 12:23:00,,0824.9,5.01,0.00,25.1,23.9,00.0,34.1,26.7,12.7,0000.0,0009.55,0004.42,0003.62
2022-05-01 12:24:00,,0824.8,5.00,0.00,25.1,23.9,00.0,34.1,26.7,13.0,0000.0,0009.44,0004.37,0003.62
2022-05-01 12:25:00,,0824.8,5.00,0.00,25.1,23.9,00.0,34.1,26.7,13.2,0000.0,0009.49,0004.39,0003.63
2022-05-01 12:26:00,,0824.8,5.01,0.00,25.0,23.9,00.0,34.1,26.7,13.2,0000.0,0009.50,0004.43,0003.64
2022-05-01 12:27:00,,0824.8,4.99,0.00,25.0,23.9,00.0,34.1,26.7,13.2,0000.0,0009.45,0004.44,0003.65
2022-05-01 12:28:00,,0824.7,5.00,0.00,25.0,23.8,00.0,34.1,26.7,13.3,0000.0,0009.25,0004.42,0003.65
2022-05-01 12:29:00,,0824.7,5.01,0.00,25.0,23.8,00.0,34.1,26.7,13.4,0000.0,0008.89,0004.40,0003.65
2022-05-01 12:30:00,,0824.7,4.99,0.00,25.0,23.8,00.0,34.1,26.7,13.4,0000.0,0009.24,0004.42,0003.67
2022-05-01 12:31:00,,0824.6,5.01,0.00,25.0,23.8,00.0,34.1,26.7,13.4,0000.0,0009.15,0004.43,0003.68
2022-05-01 12:32:00,,0824.7,5.00,0.00,25.0,23.7,00.0,34.1,26.7,13.4,0000.0,0009.07,0004.47,0003.70
2022-05-01 12:33:00,,0824.6,4.99,0.00,25.0,23.7,00.0,34.1,26.7,13.4,0000.0,0008.70,0004.47,0003.72
2022-05-01 12:34:00,,0824.6,5.02,0.00,25.0,23.7,00.0,34.0,26.7,13.3,0000.0,0008.55,0004.50,0003.73
2022-05-01 12:35:00,,0824.6,4.99,0.00,25.0,23.8,00.0,34.0,26.7,13.1,0000.0,0008.61,0004.52,0003.74
2022-05-01 12:36:00,,0824.6,5.00,0.00,25.0,23.8,00.0,34.0,26.7,13.2,0000.0,0008.64,0004.56,0003.74
2022-05-01 12:37:00,,0824.6,5.01,0.00,25.0,23.8,00.0,34.0,26.7,13.2,0000.0,0009.20,0004.56,0003.74
2022-05-01 12:38:00,,0824.6,5.00,0.00,25.0,23.8,00.0,34.0,26.7,13.3,0000.0,0009.53,0004.55,0003.74
2022-05-01 12:39:00,,0824.6,4.99,0.00,25.0,23.8,00.0,34.0,26.6,13.5,0000.0,0010.02,0004.61,0003.74
2022-05-01 12:40:00,,0824.7,5.01,0.00,25.0,23.8,00.0,34.0,26.6,13.4,0000.0,0010.22,0004.64,0003.75
2022-05-01 12:41:00,,0824.7,5.01,0.00,25.0,23.7,00.0,34.0,26.6,13.5,0000.0,0010.29,0004.64,0003.76
2022-05-01 12:42:00,,0824.7,4.99,0.00,25.0,23.7,00.0,34.0,26.6,13.6,0000.0,0010.41,0004.64,0003.76
2022-05-01 12:43:00,,0824.7,4.99,0.00,25.0,23.7,00.0,34.0,26.6,13.6,0000.0,0011.14,0004.70,0003.77
2022-05-01 12:44:00,,0824.7,5.02,0.00,24.9,23.7,00.0,34.0,26.6,13.6,0000.0,0011.23,0004.71,0003.77
2022-05-01 12:45:00,,0824.7,4.99,0.00,24.9,23.7,00.0,34.0,26.6,13.6,0000.0,0011.16,0004.70,0003.78
2022-05-01 12:46:00,,0824.6,5.01,0.00,24.9,23.7,00.0,34.0,26.6,13.6,0000.0,0011.07,0004.67,0003.78
2022-05-01 12:47:00,,0824.7,4.99,0.00,24.9,23.6,00.0,34.0,26.6,13.5,0000.0,0010.97,0004.63,0003.77
2022-05-01 12:48:00,,0824.6,5.00,0.00,24.9,23.6,00.0,34.0,26.6,13.5,0000.0,0010.65,0004.62,0003.78
2022-05-01 12:49:00,,0824.7,5.01,0.00,24.9,23.6,00.0,34.0,26.5,13.5,0000.0,0010.21,0004.66,0003.78
2022-05-01 12:50:00,,0824.7,4.98,0.00,24.9,23.5,00.0,33.9,26.6,13.6,0000.0,0010.25,0004.63,0003.79
2022-05-01 12:51:00,,0824.7,5.02,0.00,24.9,23.5,00.0,33.9,26.6,13.6,0000.0,0010.15,0004.63,0003.79
2022-05-01 12:52:00,,0824.8,4.99,0.00,24.9,23.5,00.0,33.9,26.6,13.6,0000.0,0010.48,0004.67,0003.78
2022-05-01 12:53:00,,0824.7,4.99,0.00,24.9,23.6,00.0,33.9,26.6,13.7,0000.0,0010.05,0004.68,0003.79
2022-05-01 12:54:00,,0824.7,5.01,0.00,24.9,23.6,00.0,33.9,26.6,13.7,0000.0,0009.71,0004.67,0003.79
2022-05-01 12:55:00,,0824.8,4.99,0.00,24.9,23.6,00.0,33.9,26.6,13.8,0000.0,0009.69,0004.66,0003.78
2022-05-01 12:56:00,,0824.8,5.00,0.00,24.9,23.6,00.0,33.9,26.5,13.7,0000.0,0009.97,0004.64,0003.77
2022-05-01 12:57:00,,0824.9,5.01,0.00,24.9,23.6,00.0,33.9,26.6,13.6,0000.0,0010.17,0004.68,0003.76
2022-05-01 12:58:00,,0824.8,4.99,0.00,24.9,23.6,00.0,33.9,26.5,13.4,0000.0,0010.27,0004.69,0003.76
2022-05-01 12:59:00,,0824.8,5.00,0.00,24.9,23.6,00.0,33.9,26.6,13.5,0000.0,0010.60,0004.68,0003.75
